Content
SEND FEEDBACK

Daily
Averages
Monthly
Summary
United States of America

CALISTOGA, CALIFORNIA


Home > North America > United States > California
Elevation: 383 feet     Latitude: 38 35N     Longitude: 122 35W

WEATHER
 
SELECT A DAY
Number of Records: 201,797;   Date Range: 1/1/95 - 9/3/14
 
SHARE

PRINT THIS DATA

[ ← Previous Day ]
WEATHER ALMANAC - FEBRUARY 5, 2013
[ Next Day → ]
[ °C ]   °F
Weather ElementAverageHighLow
Temperature48.8 °F63 °F (2:53 pm)44.1 °F (9:53 pm)
Dewpoint42.7 °F46 °F (3:53 pm)37 °F (9:53 pm)
Humidity80.7 %93 % (12:53 am)52 % (2:53 pm)
Barometer30.08 in30.14 in (11:53 pm)30.03 in (1:53 pm)
Wind Speed3.3 mph10.4 mph (2:53 pm)
Wind Gust18.4 mph (2:53 pm)
Weather ElementAverage
Visibility7.8 mi
Wind DirectionSSE (145.2 °)

Weather ElementTotal
Precipitation---
Heating Degree Days11.5 (Base 65)
Growing Degree Days3.6 (Base 50)
Averaged from 29 records on February 5, 2013
WEATHER CONDITIONS BREAKOUT
WIND DIRECTION BREAKOUT
WEATHER BY HOUR - FEBRUARY 5, 2013
[ °C ]   °F
Local TimeTemperatureDewpointHumidityBarometerVisibilityWind DirectionWind SpeedGust SpeedPrecipitationEventsConditions
12:53 AM46.0 °F44.1 °F93 %30.08 in5.0 miCalmOvercast
1:53 AM46.0 °F44.1 °F93 %30.08 in4.0 miCalmOvercast
2:53 AM45.0 °F43.0 °F93 %30.06 in5.0 miCalmOvercast
3:37 AM44.6 °F42.8 °F93 %30.08 in4.0 miSE (130°)3.5 mphOvercast
3:53 AM45.0 °F43.0 °F93 %30.06 in4.0 miESE (110°)3.5 mphOvercast
4:53 AM45.0 °F43.0 °F93 %30.06 in6.0 miCalm0.00 inOvercast
5:38 AM44.6 °F42.8 °F93 %30.07 in6.0 miCalmOvercast
5:53 AM45.0 °F43.0 °F93 %30.06 in6.0 miCalmOvercast
6:40 AM44.6 °F42.8 °F93 %30.08 in6.0 miCalmOvercast
6:53 AM45.0 °F42.1 °F90 %30.06 in3.0 miCalmOvercast
7:53 AM46.0 °F44.1 °F93 %30.07 in3.0 miCalmOvercast
8:30 AM46.4 °F44.6 °F93 %30.09 in6.0 miSSW (200°)3.5 mphMostly Cloudy
8:53 AM46.9 °F45.0 °F93 %30.08 in8.0 miSouth (170°)3.5 mphMostly Cloudy
9:04 AM46.4 °F44.6 °F93 %30.10 in9.0 miCalmMostly Cloudy
9:53 AM48.9 °F44.1 °F83 %30.09 in10.0 miWSW (240°)3.5 mphMostly Cloudy
10:53 AM51.1 °F44.1 °F77 %30.09 in10.0 miWSW (250°)4.6 mphMostly Cloudy
11:53 AM54.0 °F45.0 °F72 %30.07 in10.0 miCalmMostly Cloudy
12:53 PM57.0 °F45.0 °F64 %30.05 in10.0 miCalmMostly Cloudy
1:53 PM59.0 °F45.0 °F60 %30.03 in10.0 miCalmMostly Cloudy
2:53 PM63.0 °F45.0 °F52 %30.03 in10.0 miNW (310°)10.4 mph18.4 mphMostly Cloudy
3:53 PM60.1 °F46.0 °F60 %30.04 in10.0 miNNW (340°)6.9 mphScattered Clouds
4:53 PM57.9 °F44.1 °F60 %30.05 in10.0 miNW (310°)8.1 mphScattered Clouds
5:53 PM51.1 °F42.1 °F71 %30.06 in10.0 miNW (320°)6.9 mphClear
6:53 PM50.0 °F39.9 °F68 %30.07 in10.0 miWNW (290°)5.8 mphPartly Cloudy
7:53 PM46.9 °F39.0 °F74 %30.10 in10.0 miWNW (300°)4.6 mphClear
8:53 PM45.0 °F37.9 °F76 %30.11 in10.0 miWNW (290°)6.9 mphClear
9:53 PM44.1 °F37.0 °F76 %30.12 in10.0 miNW (310°)8.1 mphClear
10:53 PM45.0 °F37.9 °F76 %30.13 in10.0 miWNW (300°)5.8 mphClear
11:53 PM46.0 °F37.9 °F73 %30.14 in10.0 miNNW (340°)10.4 mphClear
Hourly data recorded from KSTS, located miles away from Calistoga, California







STORIES FROM OUR PARTNERS